Tracking 28514 objects as of 24-Feb-2024
HD Live streaming from Space Station
objects crossing your sky now

MOLNIYA 1-80

Track MOLNIYA 1-80 now!
MOLNIYA 1-80 is classified as:


NORAD ID: 21118
Int'l Code: 1991-012A
Perigee: 2,655.0 km
Apogee: 36,913.3 km
Inclination: 65.1 °
Period: 701.6 minutes
Semi major axis: 26155 km
RCS: 6.3095 m2 (large)
Launch date: February 15, 1991
Source: Commonwealth of Independent States (former USSR) (CIS)
Launch site: PLESETSK MISSILE AND SPACE COMPLEX (PKMTR)
Your satellite tracking list
Your tracking list is empty




NASA's NSSDC Master Catalog

Two Line Element Set (TLE):
1 21118U 91012A   24052.05934201 -.00000636  00000-0  00000-0 0  9999
2 21118  65.0593 269.6243 6549067 269.4002  21.0364  2.05242401243572
Source of the keplerian elements: AFSPC